Погода Ефимовская

Погода Ефимовская : погода сейчас, прогноз погоды и архив. Всё, что Вы хотите узнать о погоде Ефимовская!

Поиск расширенной информации на нашем сайте:

Другие новости

Новости СМИ2

Главная страница сайта

Новости сайта

03.07.2017

Напоминаем, что на нашем специализированном сайте Метеоцентр.Азия вы можете получить высокодетализированные автоматические прогнозы погоды по пунктам России, СНГ и мира в авиационном формате (включающие направление и скорость ветра, видимость, явления погоды, количество и форму облачности, нижнюю и верхнюю границу облачности).


Погода Ефимовская - сегодня

Время (UTC), дата Ветер
(°,м/с) 
Видим.   Явления Облачность Т
(°С)
Тd
(°С)
f(%) Тe
(°С)
Pmin
(гПа)
dP
(гПа)
Po
(мм)
O2
(г/м3)
Тmin Tmax R s Состояние
почвы
09 12.07.18 050 (СВ) н/о    н/о 
+24.8 +9.7 38 +26  1017.2  748  275           
12 12.07.18 090 (В) н/о    н/о 
+25.6 +8.8 34 +26  1016.3  -0.8  747  274           
15 12.07.18 060 (СВ) н/о    н/о 
+24.9 +9.5 38 +26  1015.4  -1  746  274           
21 12.07.18 тихо ()   н/о    н/о 
+13.3 +12.7 96 +18  1016.7  0.2  747  284           
00 13.07.18 тихо ()   н/о    н/о 
+11.7 +11.4 98 +15  1016.5  -0.3  747  286           
03 13.07.18 тихо ()   н/о    н/о 
+14.3 +13.9 97 +21  1016  -0.3  746  283  +11.5         
09 13.07.18 080 (В) н/о    н/о 
+22.7 +14.3 59 +30  1014.6  -0.4  746  275           
12 13.07.18 350 (С) н/о    н/о 
+24.3 +12 46 +28  1013.3  -1.2  745  273           
15 13.07.18 350 (С) н/о    н/о 
+23.8 +14.8 57 +32  1012.4  -0.8  744  273           
21 13.07.18 330 (СЗ) н/о    н/о 
+16.7 +15.4 92 +28  1012.6  -0.5  744  279           
00 14.07.18 тихо ()   н/о    н/о 
+14.8 +14.3 97 +23  1012.3  -0.4  744  281           
03 14.07.18 тихо ()   н/о    н/о 
+17.2 +16.1 93 +28  1011.5  -0.6  743  278  +14.3         
09 14.07.18 360 (С) н/о    н/о 
+22.2 +16.2 69 +33  1010.9  -0.2  743  273           
12 14.07.18 160 (Ю) н/о    н/о 
+20.2 +18.1 88 +35  1010.1  -0.9  742  274           
15 14.07.18 050 (СВ) н/о    н/о 
+18.3 +17.1 93 +33  1010.2  742  276           
21 14.07.18 тихо ()   н/о    н/о 
+15.3 +14.9 97 +24  1011.1  0.5  743  280           
00 15.07.18 тихо ()   н/о    н/о 
+12.9 +12.6 98 +18  1011.4  0.1  743  283           
03 15.07.18 тихо ()   н/о    н/о 
+15.3 +15 98 +24  1011.2  743  280  +12.3         
09 15.07.18 130 (ЮВ) н/о    н/о 
+24.9 +15 54 +34  1011.3  0.1  743  271           
12 15.07.18 310 (СЗ) н/о    н/о 
+22.9 +18.1 74 +38  1011.1  -0.3  743  272           
15 15.07.18 030 (СВ) н/о    н/о 
+26.2 +14.4 48 +34  1011.2  0.3  743  270           
21 15.07.18 тихо ()   н/о    н/о 
+15.5 +14.9 96 +24  1013.1  0.9  744  281           
00 16.07.18 270 (З) н/о    н/о 
+13.4 +13 97 +21  1014  0.7  745  283           
03 16.07.18 тихо ()   н/о    н/о 
+15.3 +15 98 +24  1014.3  0.5  745  281  +12.7         
09 16.07.18 040 (СВ) н/о    н/о 
+27.2 +13.6 43 +34  1013.5  -0.2  745  270           
Время (UTC), дата Ветер
(°,м/с) 
Видим.   Явления Облачность Т
(°С)
Тd
(°С)
f(%) Тe
(°С)
Pmin
(гПа)
dP
(гПа)
Po
(мм)
O2
(г/м3)
Тmin Tmax R s Состояние
почвы

Для получения пояснительной информации подведите курсор к названию столбца.

ПОГОДА Ефимовская - архив

Всё, что Вы хотите узнать о погоде Ефимовская - удобно и подробно!

Выберите нужную дату (начиная с 1 января 2015* года) и нажмите кнопку "Найти".
Будут отображены архивные сводки погоды по пункту Ефимовская, начиная с указанной даты.


Отображать данные в формате CSV (для использования в таблицах Excel)


Внимание! Наш архив погоды предназначен исключительно для личного некоммерческого использования в познавательных целях. Если Вам необходимы официальные справки о состоянии погоды (для производственных, юридических, коммерческих и т.п. целей), обращайтесь в органы Росгидромета.

*Примечание: данная дата относится к архиву по метеостанциям СССР (Россия, СНГ, Балтия).
Архив по метеостанциям Зарубежной Европы и Азии (кроме Китая) хранится 10 дней, по другим регионам земного шара (Китай, Африка, Америка, Австралия, Океания) - 1 день.

Ефимовская - район местоположения метеостанции


Название, широта, долгота, высота метеостанции:
Ефимовская 59.5°ш. 34.7°д. 176 м над ур. моря [Российская Федерация]

Дополнительная информация

В oтличие oт бoльшинства пoгoдных сайтoв мы публикуем пoдрoбную метеoинфoрмацию в детальнoм прoфессиoнальнoм фoрмате.

Характеристики температуры и влажнoсти вoздуха измеряются на высoте 2 м в тени вдали oт зданий и деревьев.
Скoрoсть ветра измеряется на высoте 10 м (на урoвне рoста челoвека скoрoсть ветра ниже в 1.5-2 раза). Если метеoстанция нахoдится в гoрoде или в лесу, тo скoрoсть ветра занижена на 2-4 м/с пo сравнению с oткрытым местoм. Скoрoсть ветра над акватoриями крупных рек и oзёр, а также на вершинах хoлмoв на 2-5 м/с выше, чем в oбычных услoвиях.
Атмoсфернoе давление в разных тoчках местнoсти мoжет значительнo oтличаться oт давления на метеoстанции, в зависимoсти oт услoвий рельефа (при пoдъёме на 10 м давление пoнижается примернo на 1 мм рт.ст.).